User: anonymous   Login
Location: Unspecified
(0.0000°N, 0.0000°E)
Time: 14:51:17
(UTC+00:00)
Language:

XW-2C - Orbit

View from above orbital plane
View from above orbital plane
View from above satellite
View from above satellite

Ground track
Ground track

The orbit data is extracted from the following two-line orbital elements,

1 40906U 15049H   18197.04525461  .00000494  00000-0  29752-4 0  9997
2 40906  97.4599 200.0083 0013434 292.6477  67.3334 15.15236010155864
Epoch (UTC): 16 July 2018 01:05:09
Eccentricity: 0.0013434
inclination: 97.4599°
perigee height: 511 km
apogee height: 529 km
right ascension of ascending node: 200.0083°
argument of perigee: 292.6477°
revolutions per day: 15.15236010
mean anomaly at epoch: 67.3334°
orbit number at epoch: 15586

The dashed part of the orbit path shows where the satellite is in the earth's shadow,  

DLR